Weather History for KLVM - May, 2013

Change the Weather History Date:

Tuesday, May 28, 2013

  Actual Average Record
Temperature  
Mean Temperature 56 °F 54 °F  
Max Temperature 66 °F 68 °F 88 °F (1958)
Min Temperature 46 °F 40 °F 30 °F (1984)
Degree Days  
Heating Degree Days 9 11  
Month to date heating degree days 415  
Since 1 July heating degree days 7363  
Cooling Degree Days 0 0  
Month to date cooling degree days 0  
Year to date cooling degree days 0  
Growing Degree Days 6 (Base 50)    
Moisture  
Dew Point 40 °F    
Average Humidity 55    
Maximum Humidity 89    
Minimum Humidity 35    
Precipitation  
Precipitation 0.10 in 0.09 in 1.16 in (2010)
Month to date precipitation 2.35  
Year to date precipitation 5.95  
Sea Level Pressure  
Sea Level Pressure 29.66 in    
Wind  
Wind Speed 8 mph (West)    
Max Wind Speed 15 mph    
Max Gust Speed 21 mph    
Visibility 10 miles    
Events Rain    
T = Trace of Precipitation, MM = Missing Value Source: NWS Daily Summary

Daily Weather History Graph

Daily Weather History Graph

Search for Another Location

Airport or City:

Trip Planner

Search our weather history database for the weather conditions in past years. The results will help you decide how hot, cold, wet, or windy it might be!

Date:

Astronomy

May. 28, 2013 Rise Set
Actual Time 5:38 AM MDT 9:00 PM MDT
Civil Twilight 5:01 AM MDT 9:37 PM MDT
Nautical Twilight 4:13 AM MDT 10:25 PM MDT
Astronomical Twilight 3:12 AM MDT 11:26 PM MDT
Moon No Moon Rise 9:35 AM MDT (5/28)
Length of Visible Light 16h 35m
Length of Day
15h 22m
Waning Gibbous, 82% of the Moon is Illuminated
May 28
Waning Gibbous
May 31
Last Quarter
Jun 8
New
Jun 16
First Quarter
Jun 23
Full

Hourly Weather History & Observations

Time (MDT) Temp. Dew Point Humidity Pressure Visibility Wind Dir Wind Speed Gust Speed Precip Events Conditions
12:53 AM 54.0 °F 41.0 °F 62% 29.71 in 10.0 mi ESE 6.9 mph - N/A   Overcast
1:53 AM 50.0 °F 41.0 °F 71% 29.70 in 10.0 mi SSE 4.6 mph - N/A   Overcast
2:53 AM 46.9 °F 39.9 °F 77% 29.69 in 10.0 mi NW 5.8 mph - N/A   Clear
3:53 AM 50.0 °F 39.9 °F 68% 29.68 in 10.0 mi West 9.2 mph - N/A   Clear
4:53 AM 52.0 °F 36.0 °F 54% 29.67 in 10.0 mi SW 3.5 mph - N/A   Mostly Cloudy
5:53 AM 51.1 °F 39.0 °F 63% 29.66 in 10.0 mi Calm Calm - N/A   Mostly Cloudy
6:53 AM 53.1 °F 37.0 °F 55% 29.66 in 10.0 mi Calm Calm - 0.00 in   Mostly Cloudy
7:53 AM 53.1 °F 37.0 °F 55% 29.66 in 10.0 mi WSW 15.0 mph - N/A   Scattered Clouds
8:53 AM 55.0 °F 37.9 °F 53% 29.67 in 10.0 mi SW 15.0 mph - N/A   Overcast
9:53 AM 57.0 °F 37.0 °F 47% 29.68 in 10.0 mi WSW 11.5 mph - N/A   Overcast
10:53 AM 60.1 °F 37.0 °F 42% 29.65 in 10.0 mi WSW 12.7 mph - N/A   Overcast
11:53 AM 64.9 °F 37.9 °F 37% 29.63 in 10.0 mi WNW 10.4 mph 20.7 mph N/A   Overcast
12:53 PM 64.0 °F 36.0 °F 35% 29.63 in 10.0 mi West 11.5 mph 17.3 mph N/A   Overcast
1:53 PM 64.0 °F 37.0 °F 37% 29.63 in 10.0 mi WNW 10.4 mph - N/A   Scattered Clouds
2:53 PM 66.0 °F 39.0 °F 37% 29.62 in 10.0 mi NW 10.4 mph - N/A   Overcast
3:53 PM 64.9 °F 39.0 °F 39% 29.62 in 10.0 mi North 9.2 mph - N/A   Mostly Cloudy
4:53 PM 64.0 °F 39.0 °F 40% 29.62 in 10.0 mi WNW 4.6 mph - N/A   Mostly Cloudy
5:53 PM 64.0 °F 37.9 °F 38% 29.62 in 10.0 mi NNW 8.1 mph - N/A   Mostly Cloudy
6:53 PM 60.1 °F 41.0 °F 49% 29.64 in 10.0 mi WSW 12.7 mph - N/A   Overcast
7:53 PM 57.9 °F 41.0 °F 53% 29.66 in 10.0 mi WSW 11.5 mph - N/A   Overcast
8:53 PM 53.1 °F 44.1 °F 71% 29.69 in 10.0 mi WSW 11.5 mph 20.7 mph 0.00 in Rain Light Rain
9:53 PM 52.0 °F 44.1 °F 74% 29.70 in 10.0 mi SSE 9.2 mph - 0.01 in Rain Light Rain
10:53 PM 50.0 °F 46.9 °F 89% 29.72 in 5.0 mi NNW 5.8 mph - 0.06 in Rain Rain
11:53 PM 51.1 °F 46.0 °F 83% 29.70 in 10.0 mi Calm Calm - 0.03 in Rain Light Rain